"Period start","avg(HW err(1)/warn(2) (#))","avg(Visibility (m))","avg(Weather code (#))","avg(Precip intensity (mm/h))","min(HW err(1)/warn(2) (#))","max(HW err(1)/warn(2) (#))","std(HW err(1)/warn(2) (#))","med(HW err(1)/warn(2) (#))","min(Visibility (m))","max(Visibility (m))","std(Visibility (m))","med(Visibility (m))","min(Weather code (#))","max(Weather code (#))","std(Weather code (#))","med(Weather code (#))","min(Precip intensity (mm/h))","max(Precip intensity (mm/h))","std(Precip intensity (mm/h))","med(Precip intensity (mm/h))"
2017-05-01 00:00:00,2,32938,71,0.14,2,2,0,2,16099,46906,10895,35218,71,71,0,71,0.00,0.75,0.21,0.05
2017-05-01 00:10:00,2,30447,71,0.20,2,2,0,2,18680,40685,7319,29214,71,71,0,71,0.00,1.15,0.37,0.03
2017-05-01 00:20:00,2,32401,71,0.08,2,2,0,2,24173,43712,5886,31691,71,71,0,71,0.00,0.60,0.17,0.03
2017-05-01 00:30:00,2,16632,71,0.45,2,2,0,2,7291,42365,10024,13376,71,71,0,71,0.05,1.05,0.32,0.33
2017-05-01 00:40:00,2,14450,71,0.52,2,2,0,2,7538,26418,7027,10884,71,71,0,71,0.00,1.25,0.43,0.47
2017-05-01 00:50:00,2,21361,71,0.31,2,2,0,2,8962,37802,9442,18604,71,71,0,71,0.05,1.15,0.34,0.12
2017-05-01 01:00:00,2,13624,71,0.33,2,2,0,2,6704,29423,6853,11588,71,71,0,71,0.00,0.85,0.25,0.35
2017-05-01 01:10:00,2,13912,71,0.40,2,2,0,2,9939,24778,4175,12236,71,71,0,71,0.05,0.85,0.30,0.38
2017-05-01 01:20:00,2,14367,71,0.20,2,2,0,2,11039,24682,4077,12714,71,71,0,71,0.00,0.70,0.19,0.15
2017-05-01 01:30:00,2,19912,71,0.20,2,2,0,2,10704,31705,5869,19672,71,71,0,71,0.00,0.60,0.18,0.15
2017-05-01 01:40:00,2,23528,72,0.08,2,2,0,2,13822,34153,7343,21715,71,77,2,71,0.00,0.45,0.13,0.05
2017-05-01 01:50:00,2,25483,76,0.03,2,2,0,2,16695,42068,8568,21226,71,77,2,77,0.00,0.10,0.03,0.00
2017-05-01 02:00:00,2,17220,73,0.11,2,2,0,2,10861,29348,5226,15616,71,77,3,71,0.00,0.50,0.14,0.08
2017-05-01 02:10:00,2,14870,71,0.19,2,2,0,2,6535,27527,6198,13986,71,71,0,71,0.05,0.75,0.20,0.10
2017-05-01 02:20:00,2,18761,72,0.07,2,2,0,2,10200,39160,8985,15018,71,77,2,71,0.00,0.15,0.04,0.05
2017-05-01 02:30:00,2,10429,71,0.20,2,2,0,2,6215,17396,3407,10102,71,71,0,71,0.00,0.55,0.18,0.12
2017-05-01 02:40:00,2,10469,71,0.30,2,2,0,2,5016,18372,5057,7273,71,71,0,71,0.05,0.65,0.20,0.28
2017-05-01 02:50:00,2,8558,71,0.40,2,2,0,2,4765,15851,3768,7795,71,71,0,71,0.05,1.05,0.32,0.33
2017-05-01 03:00:00,2,16078,71,0.15,2,2,0,2,5527,29491,7305,17022,71,71,0,71,0.05,0.65,0.17,0.10
2017-05-01 03:10:00,2,24827,73,0.02,2,2,0,2,17160,40602,6545,24580,71,77,3,71,0.00,0.10,0.03,0.00
2017-05-01 03:20:00,2,15201,75,0.06,2,2,0,2,9745,23196,4153,13946,71,77,3,77,0.00,0.20,0.06,0.05
2017-05-01 03:30:00,2,9948,71,0.24,2,2,0,2,6285,16735,2966,9490,71,71,0,71,0.05,0.70,0.21,0.15
2017-05-01 03:40:00,2,15452,71,0.18,2,2,0,2,7535,26501,6968,14911,71,71,0,71,0.00,0.70,0.23,0.10
2017-05-01 03:50:00,2,16123,76,0.11,2,2,0,2,8131,25030,4686,15550,71,77,2,77,0.00,0.55,0.16,0.05
2017-05-01 04:00:00,2,25159,20,0.00,2,2,0,2,15101,33040,5826,26751,0,77,33,0,0.00,0.05,0.01,0.00
2017-05-01 04:10:00,2,35615,0,0.00,2,2,0,2,25961,47099,5868,34432,0,0,0,0,0.00,0.00,0.00,0.00
2017-05-01 04:20:00,2,22012,36,0.03,2,2,0,2,12700,30063,5721,21290,0,71,36,36,0.00,0.15,0.06,0.00
2017-05-01 04:30:00,2,29495,21,0.00,2,2,0,2,17622,44650,8252,29516,0,71,33,0,0.00,0.00,0.00,0.00
2017-05-01 04:40:00,2,30288,0,0.00,2,2,0,2,19864,38974,5523,30209,0,0,0,0,0.00,0.00,0.00,0.00
2017-05-01 04:50:00,2,34726,0,0.00,2,2,0,2,24830,46053,6843,34032,0,0,0,0,0.00,0.00,0.00,0.00
2017-05-01 05:00:00,2,34805,0,0.00,2,2,0,2,23417,49586,10168,31972,0,0,0,0,0.00,0.00,0.00,0.00
2017-05-01 05:10:00,2,37239,0,0.00,2,2,0,2,30478,47390,4961,36576,0,0,0,0,0.00,0.00,0.00,0.00
2017-05-01 05:20:00,2,40921,0,0.00,2,2,0,2,30140,50000,5345,40389,0,0,0,0,0.00,0.00,0.00,0.00
2017-05-01 05:30:00,2,37429,0,0.00,2,2,0,2,30647,49933,5579,37121,0,0,0,0,0.00,0.00,0.00,0.00
2017-05-01 05:40:00,2,33886,0,0.00,2,2,0,2,21374,50000,8356,34838,0,0,0,0,0.00,0.00,0.00,0.00
2017-05-01 05:50:00,2,37944,0,0.00,2,2,0,2,28303,50000,6554,37538,0,0,0,0,0.00,0.00,0.00,0.00
2017-05-01 06:00:00,2,35721,0,0.00,2,2,0,2,27681,42976,4591,35415,0,0,0,0,0.00,0.00,0.00,0.00
2017-05-01 06:10:00,2,42483,0,0.00,2,2,0,2,30923,50000,5930,43697,0,0,0,0,0.00,0.00,0.00,0.00
2017-05-01 06:20:00,2,44018,0,0.00,2,2,0,2,29778,50000,6727,46536,0,0,0,0,0.00,0.00,0.00,0.00
2017-05-01 06:30:00,2,47542,0,0.00,2,2,0,2,41263,50000,3371,50000,0,0,0,0,0.00,0.00,0.00,0.00
2017-05-01 06:40:00,2,42976,0,0.00,2,2,0,2,29230,50000,6370,42450,0,0,0,0,0.00,0.00,0.00,0.00
2017-05-01 06:50:00,2,42846,0,0.00,2,2,0,2,36127,50000,3703,43262,0,0,0,0,0.00,0.00,0.00,0.00
2017-05-01 07:00:00,2,46942,0,0.00,2,2,0,2,40458,50000,3321,47988,0,0,0,0,0.00,0.00,0.00,0.00
2017-05-01 07:10:00,2,47088,0,0.00,2,2,0,2,40934,50000,2801,47378,0,0,0,0,0.00,0.00,0.00,0.00
2017-05-01 07:20:00,2,43181,0,0.00,2,2,0,2,31885,49976,5687,45918,0,0,0,0,0.00,0.00,0.00,0.00
2017-05-01 07:30:00,2,44685,0,0.00,2,2,0,2,38138,50000,4025,44998,0,0,0,0,0.00,0.00,0.00,0.00
2017-05-01 07:40:00,2,48210,0,0.00,2,2,0,2,41280,50000,3000,50000,0,0,0,0,0.00,0.00,0.00,0.00
2017-05-01 07:50:00,2,47863,0,0.00,2,2,0,2,43237,50000,2543,49087,0,0,0,0,0.00,0.00,0.00,0.00
2017-05-01 08:00:00,2,41889,0,0.00,2,2,0,2,27475,50000,6737,43752,0,0,0,0,0.00,0.00,0.00,0.00
2017-05-01 08:10:00,2,44585,0,0.00,2,2,0,2,37034,50000,4233,45577,0,0,0,0,0.00,0.00,0.00,0.00
2017-05-01 08:20:00,2,43968,0,0.00,2,2,0,2,34647,50000,4982,45444,0,0,0,0,0.00,0.00,0.00,0.00
2017-05-01 08:30:00,2,48892,0,0.00,2,2,0,2,44303,50000,1952,50000,0,0,0,0,0.00,0.00,0.00,0.00
2017-05-01 08:40:00,2,47134,0,0.00,2,2,0,2,41061,50000,2737,48288,0,0,0,0,0.00,0.00,0.00,0.00
2017-05-01 08:50:00,2,43963,0,0.00,2,2,0,2,32782,50000,5423,45882,0,0,0,0,0.00,0.00,0.00,0.00
2017-05-01 09:00:00,2,44639,0,0.00,2,2,0,2,33300,50000,5451,46194,0,0,0,0,0.00,0.00,0.00,0.00
2017-05-01 09:10:00,2,44424,0,0.00,2,2,0,2,35923,50000,4106,45813,0,0,0,0,0.00,0.00,0.00,0.00
2017-05-01 09:20:00,2,46806,0,0.00,2,2,0,2,37847,50000,4051,49144,0,0,0,0,0.00,0.00,0.00,0.00
2017-05-01 09:30:00,2,49909,0,0.00,2,2,0,2,49527,50000,181,50000,0,0,0,0,0.00,0.00,0.00,0.00
2017-05-01 09:40:00,2,44424,0,0.00,2,2,0,2,33359,50000,6062,46157,0,0,0,0,0.00,0.00,0.00,0.00
2017-05-01 09:50:00,2,48538,0,0.00,2,2,0,2,39760,50000,2974,49533,0,0,0,0,0.00,0.00,0.00,0.00
2017-05-01 10:00:00,2,48070,0,0.00,2,2,0,2,39399,50000,3209,50000,0,0,0,0,0.00,0.00,0.00,0.00
2017-05-01 10:10:00,2,48563,0,0.00,2,2,0,2,44224,50000,2119,49764,0,0,0,0,0.00,0.00,0.00,0.00
2017-05-01 10:20:00,2,48955,0,0.00,2,2,0,2,44240,50000,1854,50000,0,0,0,0,0.00,0.00,0.00,0.00
2017-05-01 10:30:00,2,47747,0,0.00,2,2,0,2,41783,50000,2589,48400,0,0,0,0,0.00,0.00,0.00,0.00
2017-05-01 10:40:00,2,49687,0,0.00,2,2,0,2,47131,50000,856,50000,0,0,0,0,0.00,0.00,0.00,0.00
2017-05-01 10:50:00,2,45199,0,0.00,2,2,0,2,41656,50000,3207,44893,0,0,0,0,0.00,0.00,0.00,0.00
2017-05-01 11:00:00,2,45782,0,0.00,2,2,0,2,38090,50000,4088,47246,0,0,0,0,0.00,0.00,0.00,0.00
2017-05-01 11:10:00,2,49666,0,0.00,2,2,0,2,47785,50000,712,50000,0,0,0,0,0.00,0.00,0.00,0.00
2017-05-01 11:20:00,2,49856,0,0.00,2,2,0,2,48828,50000,352,50000,0,0,0,0,0.00,0.00,0.00,0.00
2017-05-01 11:30:00,2,48489,0,0.00,2,2,0,2,39837,50000,3023,50000,0,0,0,0,0.00,0.00,0.00,0.00
2017-05-01 11:40:00,2,49429,0,0.00,2,2,0,2,47405,50000,797,49836,0,0,0,0,0.00,0.00,0.00,0.00
2017-05-01 11:50:00,2,49047,0,0.00,2,2,0,2,44024,50000,1821,50000,0,0,0,0,0.00,0.00,0.00,0.00
2017-05-01 12:00:00,2,49460,0,0.00,2,2,0,2,44950,50000,1507,50000,0,0,0,0,0.00,0.00,0.00,0.00
2017-05-01 12:10:00,2,50000,0,0.00,2,2,0,2,50000,50000,0,50000,0,0,0,0,0.00,0.00,0.00,0.00
2017-05-01 12:20:00,2,49977,0,0.00,2,2,0,2,49772,50000,68,50000,0,0,0,0,0.00,0.00,0.00,0.00
2017-05-01 12:30:00,2,50000,0,0.00,2,2,0,2,50000,50000,0,50000,0,0,0,0,0.00,0.00,0.00,0.00
2017-05-01 12:40:00,2,50000,0,0.00,2,2,0,2,50000,50000,0,50000,0,0,0,0,0.00,0.00,0.00,0.00
2017-05-01 12:50:00,2,49756,0,0.00,2,2,0,2,48572,50000,497,50000,0,0,0,0,0.00,0.00,0.00,0.00
2017-05-01 13:00:00,2,50000,0,0.00,2,2,0,2,50000,50000,0,50000,0,0,0,0,0.00,0.00,0.00,0.00
2017-05-01 13:10:00,2,50000,0,0.00,2,2,0,2,50000,50000,0,50000,0,0,0,0,0.00,0.00,0.00,0.00
2017-05-01 13:20:00,2,49928,0,0.00,2,2,0,2,49275,50000,218,50000,0,0,0,0,0.00,0.00,0.00,0.00
2017-05-01 13:30:00,2,46674,0,0.00,2,2,0,2,33224,50000,4933,48796,0,0,0,0,0.00,0.00,0.00,0.00
2017-05-01 13:40:00,2,23288,69,0.00,2,2,0,2,17360,31209,4532,22832,0,78,23,78,0.00,0.00,0.00,0.00
2017-05-01 13:50:00,2,23577,78,0.00,2,2,0,2,16173,31302,4784,24920,78,78,0,78,0.00,0.00,0.00,0.00
2017-05-01 14:00:00,2,17329,78,0.00,2,2,0,2,9567,29666,5717,16126,77,78,0,78,0.00,0.00,0.00,0.00
2017-05-01 14:10:00,2,40627,0,0.00,2,2,0,2,29665,49784,7019,41446,0,0,0,0,0.00,0.00,0.00,0.00
2017-05-01 14:20:00,2,49182,0,0.00,2,2,0,2,46500,50000,1159,50000,0,0,0,0,0.00,0.00,0.00,0.00
2017-05-01 14:30:00,2,48379,0,0.00,2,2,0,2,45638,50000,1702,48918,0,0,0,0,0.00,0.00,0.00,0.00
2017-05-01 14:40:00,2,49826,0,0.00,2,2,0,2,48259,50000,522,50000,0,0,0,0,0.00,0.00,0.00,0.00
2017-05-01 14:50:00,2,48887,0,0.00,2,2,0,2,46124,50000,1439,50000,0,0,0,0,0.00,0.00,0.00,0.00
2017-05-01 15:00:00,2,48969,0,0.00,2,2,0,2,44443,50000,1669,49936,0,0,0,0,0.00,0.00,0.00,0.00
2017-05-01 15:10:00,2,50000,0,0.00,2,2,0,2,50000,50000,0,50000,0,0,0,0,0.00,0.00,0.00,0.00
2017-05-01 15:20:00,2,49989,0,0.00,2,2,0,2,49890,50000,33,50000,0,0,0,0,0.00,0.00,0.00,0.00
2017-05-01 15:30:00,2,50000,0,0.00,2,2,0,2,50000,50000,0,50000,0,0,0,0,0.00,0.00,0.00,0.00
2017-05-01 15:40:00,2,49433,0,0.00,2,2,0,2,47167,50000,951,50000,0,0,0,0,0.00,0.00,0.00,0.00
2017-05-01 15:50:00,2,49690,0,0.00,2,2,0,2,47299,50000,806,50000,0,0,0,0,0.00,0.00,0.00,0.00
2017-05-01 16:00:00,2,49845,0,0.00,2,2,0,2,48471,50000,458,50000,0,0,0,0,0.00,0.00,0.00,0.00
2017-05-01 16:10:00,2,49963,0,0.00,2,2,0,2,49634,50000,110,50000,0,0,0,0,0.00,0.00,0.00,0.00
2017-05-01 16:20:00,2,50000,0,0.00,2,2,0,2,50000,50000,0,50000,0,0,0,0,0.00,0.00,0.00,0.00
2017-05-01 16:30:00,2,48984,0,0.00,2,2,0,2,43640,50000,1880,50000,0,0,0,0,0.00,0.00,0.00,0.00
2017-05-01 16:40:00,2,39767,0,0.00,2,2,0,2,33273,49400,5582,38336,0,0,0,0,0.00,0.00,0.00,0.00
2017-05-01 16:50:00,2,45697,0,0.00,2,2,0,2,33152,50000,6505,49640,0,0,0,0,0.00,0.00,0.00,0.00
2017-05-01 17:00:00,2,49868,0,0.00,2,2,0,2,48877,50000,335,50000,0,0,0,0,0.00,0.00,0.00,0.00
2017-05-01 17:10:00,2,49200,0,0.00,2,2,0,2,46132,50000,1356,50000,0,0,0,0,0.00,0.00,0.00,0.00
2017-05-01 17:20:00,2,49859,0,0.00,2,2,0,2,48591,50000,423,50000,0,0,0,0,0.00,0.00,0.00,0.00
2017-05-01 17:30:00,2,49571,0,0.00,2,2,0,2,46877,50000,935,50000,0,0,0,0,0.00,0.00,0.00,0.00
2017-05-01 17:40:00,2,49985,0,0.00,2,2,0,2,49849,50000,45,50000,0,0,0,0,0.00,0.00,0.00,0.00
2017-05-01 17:50:00,2,49656,0,0.00,2,2,0,2,47875,50000,711,50000,0,0,0,0,0.00,0.00,0.00,0.00
2017-05-01 18:00:00,2,45845,0,0.00,2,2,0,2,38936,50000,3733,47318,0,0,0,0,0.00,0.00,0.00,0.00
2017-05-01 18:10:00,2,45731,0,0.00,2,2,0,2,39134,50000,3364,46036,0,0,0,0,0.00,0.00,0.00,0.00
2017-05-01 18:20:00,2,45007,22,0.00,2,2,0,2,35885,50000,4514,45540,0,78,34,0,0.00,0.00,0.00,0.00
2017-05-01 18:30:00,2,46424,61,0.01,2,2,0,2,37114,50000,4084,47988,0,78,31,77,0.00,0.05,0.02,0.00
2017-05-01 18:40:00,2,46693,22,0.00,2,2,0,2,41746,50000,2166,46864,0,78,34,0,0.00,0.00,0.00,0.00
2017-05-01 18:50:00,2,46148,78,0.00,2,2,0,2,33826,50000,4539,46650,78,78,0,78,0.00,0.00,0.00,0.00
2017-05-01 19:00:00,2,32268,75,0.01,2,2,0,2,26675,40239,4096,32024,71,78,3,78,0.00,0.05,0.02,0.00
2017-05-01 19:10:00,2,15224,75,0.04,2,2,0,2,12578,19538,2148,15094,71,78,3,77,0.00,0.10,0.03,0.05
2017-05-01 19:20:00,2,31654,78,0.01,2,2,0,2,25305,39417,4643,31824,77,78,0,78,0.00,0.05,0.02,0.00
2017-05-01 19:30:00,2,37625,78,0.01,2,2,0,2,19365,46030,6935,38223,77,78,0,78,0.00,0.05,0.02,0.00
2017-05-01 19:40:00,2,35988,72,0.03,2,2,0,2,23083,47842,7118,37610,71,77,2,71,0.00,0.20,0.06,0.00
2017-05-01 19:50:00,2,31355,74,0.02,2,2,0,2,27375,36147,2209,31205,71,78,3,74,0.00,0.15,0.05,0.00
2017-05-01 20:00:00,2,28040,73,0.11,2,2,0,2,17288,42867,6338,27126,71,77,3,71,0.00,0.60,0.17,0.05
2017-05-01 20:10:00,2,22131,71,0.10,2,2,0,2,15519,32516,5623,19907,71,71,0,71,0.00,0.25,0.08,0.10
2017-05-01 20:20:00,2,23443,71,0.12,2,2,0,2,15737,37760,7160,23273,71,71,0,71,0.00,0.50,0.14,0.08
2017-05-01 20:30:00,2,16506,71,0.15,2,2,0,2,10792,25381,4278,15309,71,71,0,71,0.05,0.65,0.17,0.10
2017-05-01 20:40:00,2,18497,71,0.16,2,2,0,2,14461,24471,2791,17732,71,71,0,71,0.00,0.45,0.14,0.12
2017-05-01 20:50:00,2,16464,71,0.20,2,2,0,2,12006,22674,3250,15142,71,71,0,71,0.05,0.50,0.11,0.15
2017-05-01 21:00:00,2,20837,71,0.14,2,2,0,2,14537,28924,4184,21054,71,71,0,71,0.05,0.35,0.08,0.12
2017-05-01 21:10:00,2,21814,71,0.06,2,2,0,2,13519,31067,5284,22647,71,71,0,71,0.00,0.15,0.04,0.05
2017-05-01 21:20:00,2,27347,71,0.05,2,2,0,2,19835,41901,6625,25128,71,71,0,71,0.00,0.10,0.03,0.05
2017-05-01 21:30:00,2,22800,75,0.07,2,2,0,2,15279,26864,3191,23282,71,78,3,77,0.00,0.15,0.05,0.05
2017-05-01 21:40:00,2,22990,72,0.08,2,2,0,2,15687,27882,3597,23676,71,77,2,71,0.00,0.25,0.07,0.05
2017-05-01 21:50:00,2,25773,75,0.07,2,2,0,2,16095,34121,4784,25863,71,77,3,77,0.00,0.20,0.05,0.05
2017-05-01 22:00:00,2,18784,71,0.13,2,2,0,2,12749,27646,4698,16585,71,71,0,71,0.00,0.60,0.16,0.08
2017-05-01 22:10:00,2,20066,73,0.07,2,2,0,2,16114,24720,2779,20302,71,77,3,71,0.05,0.10,0.02,0.05
2017-05-01 22:20:00,2,24445,72,0.07,2,2,0,2,18693,32433,4767,24487,71,77,2,71,0.00,0.35,0.10,0.05
2017-05-01 22:30:00,2,25149,71,0.07,2,2,0,2,14477,37019,6663,23118,71,71,0,71,0.00,0.20,0.07,0.05
2017-05-01 22:40:00,2,27978,71,0.06,2,2,0,2,17292,41386,7834,25962,71,71,0,71,0.00,0.15,0.05,0.05
2017-05-01 22:50:00,2,31445,71,0.03,2,2,0,2,26155,39965,4500,30180,71,71,0,71,0.00,0.10,0.04,0.00
2017-05-01 23:00:00,2,28554,74,0.07,2,2,0,2,22400,39842,5847,26186,71,77,3,74,0.00,0.35,0.10,0.05
2017-05-01 23:10:00,2,23928,73,0.07,2,2,0,2,15752,39612,6654,22658,71,77,3,71,0.00,0.20,0.06,0.05
2017-05-01 23:20:00,2,26805,73,0.11,2,2,0,2,18644,36494,4871,28604,71,77,3,71,0.00,0.55,0.16,0.05
2017-05-01 23:30:00,2,19047,71,0.22,2,2,0,2,13374,29328,4838,17878,71,71,0,71,0.05,0.70,0.20,0.15
2017-05-01 23:40:00,2,20924,71,0.14,2,2,0,2,13183,36672,7368,18074,71,71,0,71,0.00,0.65,0.18,0.08
2017-05-01 23:50:00,2,17625,71,0.16,2,2,0,2,12085,26798,4152,16348,71,71,0,71,0.05,0.40,0.10,0.15
